CST,Max TemperatureF,Mean TemperatureF,Min TemperatureF,Max Dew PointF,MeanDew PointF,Min DewpointF,Max Humidity, Mean Humidity, Min Humidity, Max Sea Level PressureIn, Mean Sea Level PressureIn, Min Sea Level PressureIn, Max VisibilityMiles, Mean VisibilityMiles, Min VisibilityMiles, Max Wind SpeedMPH, Mean Wind SpeedMPH, Max Gust SpeedMPH,PrecipitationIn, CloudCover, Events, WindDirDegrees
2012-11-1,41,36,32,34,25,10,87,63,36,29.96,29.87,29.82,10,10,10,14,10,20,0.00,7,,326
2012-11-2,42,33,24,28,23,19,93,69,39,30.16,30.06,29.96,10,10,5,7,4,,0.00,1,,3
2012-11-3,41,34,26,28,25,21,87,76,57,30.22,30.19,30.15,10,10,7,12,4,,0.00,6,,85
2012-11-4,42,32,21,30,25,19,93,76,53,30.23,30.19,30.15,10,10,10,7,3,,0.00,0,,82
2012-11-5,39,31,23,27,25,19,93,78,61,30.21,30.14,30.01,10,10,10,10,5,,0.00,2,,109
2012-11-6,33,32,32,32,31,27,93,90,80,30.00,29.84,29.75,10,3,0,12,6,18,0.00,8,Fog-Snow,162
2012-11-7,37,35,33,36,33,30,100,92,87,30.08,30.03,29.89,10,5,0,6,1,,0.00,8,Fog,176
2012-11-8,48,42,35,39,35,32,93,82,66,30.08,30.01,29.93,10,9,5,16,5,20,0.00,4,,180
2012-11-9,50,44,39,39,37,36,93,81,66,30.07,30.03,30.00,10,9,3,17,6,21,0.00,7,,82
2012-11-10,57,47,37,54,43,36,100,93,87,30.03,29.79,29.63,10,4,0,21,15,28,0.00,7,Fog-Rain,114
2012-11-11,60,42,24,54,42,19,100,86,63,29.83,29.67,29.61,10,8,2,18,12,26,0.00,8,Rain,231
2012-11-12,24,22,19,19,16,12,86,76,68,30.19,29.95,29.83,10,9,2,23,15,29,0.00,8,Snow,255
2012-11-13,35,27,19,23,19,16,86,72,52,30.35,30.30,30.20,10,10,10,13,7,16,0.00,4,,221
2012-11-14,42,36,30,32,28,23,80,71,61,30.33,30.26,30.19,10,10,10,12,5,,0.00,7,,164
2012-11-15,48,39,30,34,30,19,81,68,56,30.36,30.22,30.16,10,10,10,10,7,,0.00,3,,219
2012-11-16,41,32,24,34,26,19,100,77,61,30.47,30.41,30.37,10,9,0,12,4,17,0.00,0,Fog,126
2012-11-17,51,43,35,39,35,34,100,82,58,30.40,30.36,30.32,10,5,0,10,7,,0.00,4,Fog,155
2012-11-18,53,45,37,36,33,30,87,66,47,30.32,30.24,30.18,10,8,4,14,9,20,0.00,3,,154
2012-11-19,48,45,41,39,36,34,87,71,66,30.19,30.10,30.04,10,10,7,12,6,,0.00,8,Rain,152
2012-11-20,53,42,30,43,36,30,100,83,58,30.11,30.08,30.04,10,6,0,7,1,,0.00,1,Fog,261
2012-11-21,57,44,30,45,39,28,100,81,59,30.09,29.96,29.83,10,6,0,14,6,18,0.00,1,Fog,182
2012-11-22,59,44,26,45,39,23,93,72,55,29.82,29.68,29.58,10,10,2,24,13,32,0.00,3,Rain-Snow,214
2012-11-23,26,22,19,21,17,10,93,78,68,30.19,30.00,29.74,10,8,2,25,18,34,0.00,8,Snow,303
2012-11-24,26,22,17,21,14,10,86,73,64,30.19,30.04,29.78,10,9,1,13,6,18,0.00,6,Snow,199
2012-11-25,26,24,23,21,20,16,86,80,74,30.02,29.85,29.74,10,9,2,17,7,21,0.00,8,Snow,270
2012-11-26,23,14,6,19,8,1,86,73,58,30.29,30.20,30.02,10,10,5,12,7,16,0.00,3,Snow,294
2012-11-27,28,18,8,19,13,3,85,72,59,30.28,30.15,30.06,10,10,5,14,6,16,0.00,5,Snow,229
2012-11-28,28,22,17,23,19,12,86,76,64,30.27,30.18,30.11,10,10,7,16,8,20,0.00,4,,261
2012-11-29,37,27,17,27,24,16,93,77,60,30.14,30.09,30.05,10,9,5,16,6,21,0.00,3,,86
2012-11-30,30,28,26,30,26,21,100,91,80,30.17,30.14,30.11,10,7,1,18,12,23,0.00,8,,92